{"data":{"norad_id":69506,"epoch":"2026-09-19T09:47:23.460288Z","epoch_age_seconds":127759,"freshness":"FRESH","line1":"1 69506U 26132E   26262.40791042  .00001743  00000+0  14020-3 0  9999","line2":"2 69506  97.6581 324.9479 0013433 358.6988   1.4199 15.01232907 14901","mean_motion":15.01232907,"eccentricity":0.0013433,"inclination_deg":97.6581,"raan_deg":324.9479,"arg_perigee_deg":358.6988,"mean_anomaly_deg":1.4199,"bstar":0.0001402,"rev_number":1490,"period_min":95.921158754616,"perigee_km":553.76920443033,"apogee_km":572.41751391328,"semimajor_km":6941.2303591718,"source":"CELESTRAK","updated_at":"2026-09-20T09:00:24.938264Z"}}